Year,Month,Day,Hour,Minute,Value (Times are PST for temperature in C)
2012,04,03,00,00,9.90
2012,04,03,00,01,9.90
2012,04,03,00,02,9.90
2012,04,03,00,03,9.90
2012,04,03,00,04,9.90
2012,04,03,00,05,9.90
2012,04,03,00,06,9.80
2012,04,03,00,07,9.80
2012,04,03,00,08,9.80
2012,04,03,00,09,9.80
2012,04,03,00,10,9.70
2012,04,03,00,11,9.70
2012,04,03,00,12,9.70
2012,04,03,00,13,9.70
2012,04,03,00,14,9.70
2012,04,03,00,15,9.70
2012,04,03,00,16,9.70
2012,04,03,00,17,9.70
2012,04,03,00,18,9.70
2012,04,03,00,19,9.70
2012,04,03,00,20,9.70
2012,04,03,00,21,9.80
2012,04,03,00,22,9.80
2012,04,03,00,23,9.80
2012,04,03,00,24,9.80
2012,04,03,00,25,9.80
2012,04,03,00,26,9.80
2012,04,03,00,27,9.80
2012,04,03,00,28,9.80
2012,04,03,00,29,9.70
2012,04,03,00,30,9.70
2012,04,03,00,31,9.70
2012,04,03,00,32,9.70
2012,04,03,00,33,9.60
2012,04,03,00,34,9.60
2012,04,03,00,35,9.50
2012,04,03,00,36,9.40
2012,04,03,00,37,9.40
2012,04,03,00,38,9.30
2012,04,03,00,39,9.30
2012,04,03,00,40,9.20
2012,04,03,00,41,9.20
2012,04,03,00,42,9.20
2012,04,03,00,43,9.10
2012,04,03,00,44,9.10
2012,04,03,00,45,9.10
2012,04,03,00,46,9.20
2012,04,03,00,47,9.20
2012,04,03,00,48,9.20
2012,04,03,00,49,9.20
2012,04,03,00,50,9.20
2012,04,03,00,51,9.20
2012,04,03,00,52,9.30
2012,04,03,00,53,9.30
2012,04,03,00,54,9.30
2012,04,03,00,55,9.30
2012,04,03,00,56,9.30
2012,04,03,00,57,9.20
2012,04,03,00,58,9.20
2012,04,03,00,59,9.20
2012,04,03,01,00,9.20
2012,04,03,01,01,9.20
2012,04,03,01,02,9.20
2012,04,03,01,03,9.20
2012,04,03,01,04,9.20
2012,04,03,01,05,9.20
2012,04,03,01,06,9.20
2012,04,03,01,07,9.20
2012,04,03,01,08,9.20
2012,04,03,01,09,9.20
2012,04,03,01,10,9.10
2012,04,03,01,11,9.10
2012,04,03,01,12,9.10
2012,04,03,01,13,9.10
2012,04,03,01,14,9.00
2012,04,03,01,15,9.00
2012,04,03,01,16,9.00
2012,04,03,01,17,8.90
2012,04,03,01,18,8.90
2012,04,03,01,19,8.90
2012,04,03,01,20,8.90
2012,04,03,01,21,8.90
2012,04,03,01,22,8.90
2012,04,03,01,23,8.90
2012,04,03,01,24,8.90
2012,04,03,01,25,8.90
2012,04,03,01,26,8.90
2012,04,03,01,27,8.90
2012,04,03,01,28,8.90
2012,04,03,01,29,8.90
2012,04,03,01,30,8.90
2012,04,03,01,31,8.90
2012,04,03,01,32,8.90
2012,04,03,01,33,8.90
2012,04,03,01,34,8.90
2012,04,03,01,35,8.90
2012,04,03,01,36,8.90
2012,04,03,01,37,8.90
2012,04,03,01,38,8.80
2012,04,03,01,39,8.80
2012,04,03,01,40,8.80
2012,04,03,01,41,8.80
2012,04,03,01,42,8.80
2012,04,03,01,43,8.70
2012,04,03,01,44,8.70
2012,04,03,01,45,8.70
2012,04,03,01,46,8.70
2012,04,03,01,47,8.70
2012,04,03,01,48,8.70
2012,04,03,01,49,8.70
2012,04,03,01,50,8.70
2012,04,03,01,51,8.70
2012,04,03,01,52,8.70
2012,04,03,01,53,8.70
2012,04,03,01,54,8.70
2012,04,03,01,55,8.70
2012,04,03,01,56,8.60
2012,04,03,01,57,8.60
2012,04,03,01,58,8.60
2012,04,03,01,59,8.60
2012,04,03,02,00,8.60
2012,04,03,02,01,8.60
2012,04,03,02,02,8.60
2012,04,03,02,03,8.60
2012,04,03,02,04,8.60
2012,04,03,02,05,8.60
2012,04,03,02,06,8.60
2012,04,03,02,07,8.50
2012,04,03,02,08,8.50
2012,04,03,02,09,8.50
2012,04,03,02,10,8.50
2012,04,03,02,11,8.40
2012,04,03,02,12,8.40
2012,04,03,02,13,8.40
2012,04,03,02,14,8.40
2012,04,03,02,15,8.40
2012,04,03,02,16,8.40
2012,04,03,02,17,8.40
2012,04,03,02,18,8.40
2012,04,03,02,19,8.40
2012,04,03,02,20,8.40
2012,04,03,02,21,8.40
2012,04,03,02,22,8.40
2012,04,03,02,23,8.40
2012,04,03,02,24,8.40
2012,04,03,02,25,8.40
2012,04,03,02,26,8.40
2012,04,03,02,27,8.40
2012,04,03,02,28,8.30
2012,04,03,02,29,8.30
2012,04,03,02,30,8.30
2012,04,03,02,31,8.30
2012,04,03,02,32,8.40
2012,04,03,02,33,8.30
2012,04,03,02,34,8.40
2012,04,03,02,35,8.40
2012,04,03,02,36,8.40
2012,04,03,02,37,8.40
2012,04,03,02,38,8.50
2012,04,03,02,39,8.50
2012,04,03,02,40,8.50
2012,04,03,02,41,8.60
2012,04,03,02,42,8.60
2012,04,03,02,43,8.60
2012,04,03,02,44,8.60
2012,04,03,02,45,8.50
2012,04,03,02,46,8.50
2012,04,03,02,47,8.50
2012,04,03,02,48,8.50
2012,04,03,02,49,8.50
2012,04,03,02,50,8.50
2012,04,03,02,51,8.40
2012,04,03,02,52,8.40
2012,04,03,02,53,8.40
2012,04,03,02,54,8.40
2012,04,03,02,55,8.40
2012,04,03,02,56,8.40
2012,04,03,02,57,8.40
2012,04,03,02,58,8.30
2012,04,03,02,59,8.30
2012,04,03,03,00,8.30
2012,04,03,03,01,8.30
2012,04,03,03,02,8.30
2012,04,03,03,03,8.30
2012,04,03,03,04,8.30
2012,04,03,03,05,8.30
2012,04,03,03,06,8.30
2012,04,03,03,07,8.30
2012,04,03,03,08,8.30
2012,04,03,03,09,8.30
2012,04,03,03,10,8.30
2012,04,03,03,11,8.30
2012,04,03,03,12,8.20
2012,04,03,03,13,8.20
2012,04,03,03,14,8.30
2012,04,03,03,15,8.30
2012,04,03,03,16,8.30
2012,04,03,03,17,8.30
2012,04,03,03,18,8.30
2012,04,03,03,19,8.30
2012,04,03,03,20,8.30
2012,04,03,03,21,8.20
2012,04,03,03,22,8.20
2012,04,03,03,23,8.20
2012,04,03,03,24,8.20
2012,04,03,03,25,8.20
2012,04,03,03,26,8.20
2012,04,03,03,27,8.10
2012,04,03,03,28,8.10
2012,04,03,03,29,8.10
2012,04,03,03,30,8.10
2012,04,03,03,31,8.00
2012,04,03,03,32,8.00
2012,04,03,03,33,8.00
2012,04,03,03,34,7.90
2012,04,03,03,35,7.90
2012,04,03,03,36,7.90
2012,04,03,03,37,7.90
2012,04,03,03,38,7.80
2012,04,03,03,39,7.80
2012,04,03,03,40,7.80
2012,04,03,03,41,7.80
2012,04,03,03,42,7.70
2012,04,03,03,43,7.70
2012,04,03,03,44,7.70
2012,04,03,03,45,7.70
2012,04,03,03,46,7.70
2012,04,03,03,47,7.70
2012,04,03,03,48,7.70
2012,04,03,03,49,7.70
2012,04,03,03,50,7.70
2012,04,03,03,51,7.70
2012,04,03,03,52,7.70
2012,04,03,03,53,7.70
2012,04,03,03,54,7.70
2012,04,03,03,55,7.70
2012,04,03,03,56,7.70
2012,04,03,03,57,7.70
2012,04,03,03,58,7.70
2012,04,03,03,59,7.60
2012,04,03,04,00,7.60
2012,04,03,04,01,7.60
2012,04,03,04,02,7.60
2012,04,03,04,03,7.60
2012,04,03,04,04,7.60
2012,04,03,04,05,7.60
2012,04,03,04,06,7.60
2012,04,03,04,07,7.60
2012,04,03,04,08,7.60
2012,04,03,04,09,7.60
2012,04,03,04,10,7.60
2012,04,03,04,11,7.50
2012,04,03,04,12,7.60
2012,04,03,04,13,7.60
2012,04,03,04,14,7.60
2012,04,03,04,15,7.60
2012,04,03,04,16,7.60
2012,04,03,04,17,7.60
2012,04,03,04,18,7.60
2012,04,03,04,19,7.60
2012,04,03,04,20,7.60
2012,04,03,04,21,7.60
2012,04,03,04,22,7.60
2012,04,03,04,23,7.60
2012,04,03,04,24,7.60
2012,04,03,04,25,7.60
2012,04,03,04,26,7.60
2012,04,03,04,27,7.60
2012,04,03,04,28,7.60
2012,04,03,04,29,7.60
2012,04,03,04,30,7.60
2012,04,03,04,31,7.60
2012,04,03,04,32,7.60
2012,04,03,04,33,7.60
2012,04,03,04,34,7.60
2012,04,03,04,35,7.60
2012,04,03,04,36,7.60
2012,04,03,04,37,7.50
2012,04,03,04,38,7.50
2012,04,03,04,39,7.50
2012,04,03,04,40,7.50
2012,04,03,04,41,7.50
2012,04,03,04,42,7.50
2012,04,03,04,43,7.50
2012,04,03,04,44,7.50
2012,04,03,04,45,7.40
2012,04,03,04,46,7.40
2012,04,03,04,47,7.40
2012,04,03,04,48,7.40
2012,04,03,04,49,7.40
2012,04,03,04,50,7.40
2012,04,03,04,51,7.40
2012,04,03,04,52,7.40
2012,04,03,04,53,7.40
2012,04,03,04,54,7.40
2012,04,03,04,55,7.40
2012,04,03,04,56,7.40
2012,04,03,04,57,7.40
2012,04,03,04,58,7.40
2012,04,03,04,59,7.40
2012,04,03,05,00,7.40
2012,04,03,05,01,7.40
2012,04,03,05,02,7.40
2012,04,03,05,03,7.40
2012,04,03,05,04,7.40
2012,04,03,05,05,7.40
2012,04,03,05,06,7.40
2012,04,03,05,07,7.40
2012,04,03,05,08,7.40
2012,04,03,05,09,7.40
2012,04,03,05,10,7.40
2012,04,03,05,11,7.40
2012,04,03,05,12,7.40
2012,04,03,05,13,7.40
2012,04,03,05,14,7.40
2012,04,03,05,15,7.40
2012,04,03,05,16,7.40
2012,04,03,05,17,7.40
2012,04,03,05,18,7.40
2012,04,03,05,19,7.50
2012,04,03,05,20,7.50
2012,04,03,05,21,7.60
2012,04,03,05,22,7.60
2012,04,03,05,23,7.60
2012,04,03,05,24,7.60
2012,04,03,05,25,7.70
2012,04,03,05,26,7.70
2012,04,03,05,27,7.70
2012,04,03,05,28,7.70
2012,04,03,05,29,7.70
2012,04,03,05,30,7.70
2012,04,03,05,31,7.70
2012,04,03,05,32,7.60
2012,04,03,05,33,7.60
2012,04,03,05,34,7.60
2012,04,03,05,35,7.60
2012,04,03,05,36,7.60
2012,04,03,05,37,7.60
2012,04,03,05,38,7.60
2012,04,03,05,39,7.60
2012,04,03,05,40,7.60
2012,04,03,05,41,7.60
2012,04,03,05,42,7.60
2012,04,03,05,43,7.60
2012,04,03,05,44,7.60
2012,04,03,05,45,7.60
2012,04,03,05,46,7.60
2012,04,03,05,47,7.60
2012,04,03,05,48,7.60
2012,04,03,05,49,7.60
2012,04,03,05,50,7.50
2012,04,03,05,51,7.50
2012,04,03,05,52,7.50
2012,04,03,05,53,7.40
2012,04,03,05,54,7.40
2012,04,03,05,55,7.30
2012,04,03,05,56,7.30
2012,04,03,05,57,7.20
2012,04,03,05,58,7.10
2012,04,03,05,59,7.10
2012,04,03,06,00,7.10
2012,04,03,06,01,7.00
2012,04,03,06,02,6.90
2012,04,03,06,03,6.90
2012,04,03,06,04,6.80
2012,04,03,06,05,6.80
2012,04,03,06,06,6.70
2012,04,03,06,07,6.70
2012,04,03,06,08,6.70
2012,04,03,06,09,6.60
2012,04,03,06,10,6.60
2012,04,03,06,11,6.60
2012,04,03,06,12,6.50
2012,04,03,06,13,6.50
2012,04,03,06,14,6.40
2012,04,03,06,15,6.40
2012,04,03,06,16,6.40
2012,04,03,06,17,6.30
2012,04,03,06,18,6.30
2012,04,03,06,19,6.30
2012,04,03,06,20,6.30
2012,04,03,06,21,6.20
2012,04,03,06,22,6.20
2012,04,03,06,23,6.20
2012,04,03,06,24,6.20
2012,04,03,06,25,6.10
2012,04,03,06,26,6.10
2012,04,03,06,27,6.10
2012,04,03,06,28,6.00
2012,04,03,06,29,6.00
2012,04,03,06,30,5.90
2012,04,03,06,31,5.90
2012,04,03,06,32,5.80
2012,04,03,06,33,5.70
2012,04,03,06,34,5.70
2012,04,03,06,35,5.60
2012,04,03,06,36,5.50
2012,04,03,06,37,5.40
2012,04,03,06,38,5.40
2012,04,03,06,39,5.30
2012,04,03,06,40,5.30
2012,04,03,06,41,5.20
2012,04,03,06,42,5.10
2012,04,03,06,43,5.10
2012,04,03,06,44,5.00
2012,04,03,06,45,5.00
2012,04,03,06,46,5.00
2012,04,03,06,47,4.90
2012,04,03,06,48,4.90
2012,04,03,06,49,4.90
2012,04,03,06,50,4.80
2012,04,03,06,51,4.80
2012,04,03,06,52,4.80
2012,04,03,06,53,4.70
2012,04,03,06,54,4.70
2012,04,03,06,55,4.70
2012,04,03,06,56,4.60
2012,04,03,06,57,4.60
2012,04,03,06,58,4.50
2012,04,03,06,59,4.50
2012,04,03,07,00,4.40
2012,04,03,07,01,4.40
2012,04,03,07,02,4.40
2012,04,03,07,03,4.30
2012,04,03,07,04,4.30
2012,04,03,07,05,4.30
2012,04,03,07,06,4.30
2012,04,03,07,07,4.20
2012,04,03,07,08,4.20
2012,04,03,07,09,4.10
2012,04,03,07,10,4.10
2012,04,03,07,11,4.10
2012,04,03,07,12,4.00
2012,04,03,07,13,4.00
2012,04,03,07,14,3.90
2012,04,03,07,15,3.90
2012,04,03,07,16,3.90
2012,04,03,07,17,3.90
2012,04,03,07,18,3.90
2012,04,03,07,19,3.80
2012,04,03,07,20,3.80
2012,04,03,07,21,3.80
2012,04,03,07,22,3.80
2012,04,03,07,23,3.80
2012,04,03,07,24,3.80
2012,04,03,07,25,3.80
2012,04,03,07,26,3.80
2012,04,03,07,27,3.80
2012,04,03,07,28,3.80
2012,04,03,07,29,3.80
2012,04,03,07,30,3.80
2012,04,03,07,31,3.80
2012,04,03,07,32,3.80
2012,04,03,07,33,3.80
2012,04,03,07,34,3.80
2012,04,03,07,35,3.90
2012,04,03,07,36,3.90
2012,04,03,07,37,3.90
2012,04,03,07,38,3.90
2012,04,03,07,39,3.80
2012,04,03,07,40,3.80
2012,04,03,07,41,3.80
2012,04,03,07,42,3.80
2012,04,03,07,43,3.80
2012,04,03,07,44,3.80
2012,04,03,07,45,3.80
2012,04,03,07,46,3.80
2012,04,03,07,47,3.80
2012,04,03,07,48,3.70
2012,04,03,07,49,3.70
2012,04,03,07,50,3.70
2012,04,03,07,51,3.70
2012,04,03,07,52,3.70
2012,04,03,07,53,3.70
2012,04,03,07,54,3.70
2012,04,03,07,55,3.70
2012,04,03,07,56,3.70
2012,04,03,07,57,3.70
2012,04,03,07,58,3.70
2012,04,03,07,59,3.70
2012,04,03,08,00,3.60
2012,04,03,08,01,3.60
2012,04,03,08,02,3.60
2012,04,03,08,03,3.60
2012,04,03,08,04,3.60
2012,04,03,08,05,3.60
2012,04,03,08,06,3.50
2012,04,03,08,07,3.50
2012,04,03,08,08,3.50
2012,04,03,08,09,3.50
2012,04,03,08,10,3.50
2012,04,03,08,11,3.60
2012,04,03,08,12,3.60
2012,04,03,08,13,3.60
2012,04,03,08,14,3.60
2012,04,03,08,15,3.60
2012,04,03,08,16,3.60
2012,04,03,08,17,3.70
2012,04,03,08,18,3.70
2012,04,03,08,19,3.70
2012,04,03,08,20,3.70
2012,04,03,08,21,3.70
2012,04,03,08,22,3.70
2012,04,03,08,23,3.80
2012,04,03,08,24,3.80
2012,04,03,08,25,3.80
2012,04,03,08,26,3.80
2012,04,03,08,27,3.80
2012,04,03,08,28,3.80
2012,04,03,08,29,3.80
2012,04,03,08,30,3.80
2012,04,03,08,31,3.90
2012,04,03,08,32,3.90
2012,04,03,08,33,3.90
2012,04,03,08,34,3.90
2012,04,03,08,35,3.90
2012,04,03,08,36,4.00
2012,04,03,08,37,4.00
2012,04,03,08,38,4.00
2012,04,03,08,39,4.00
2012,04,03,08,40,4.10
2012,04,03,08,41,4.10
2012,04,03,08,42,4.10
2012,04,03,08,43,4.10
2012,04,03,08,44,4.20
2012,04,03,08,45,4.20
2012,04,03,08,46,4.20
2012,04,03,08,47,4.20
2012,04,03,08,48,4.20
2012,04,03,08,49,4.20
2012,04,03,08,50,4.20
2012,04,03,08,51,4.20
2012,04,03,08,52,4.20
2012,04,03,08,53,4.20
2012,04,03,08,54,4.20
2012,04,03,08,55,4.20
2012,04,03,08,56,4.20
2012,04,03,08,57,4.20
2012,04,03,08,58,4.20
2012,04,03,08,59,4.30
2012,04,03,09,00,4.20
2012,04,03,09,01,4.20
2012,04,03,09,02,4.20
2012,04,03,09,03,4.20
2012,04,03,09,04,4.20
2012,04,03,09,05,4.20
2012,04,03,09,06,4.20
2012,04,03,09,07,4.20
2012,04,03,09,08,4.10
2012,04,03,09,09,4.10
2012,04,03,09,10,4.10
2012,04,03,09,11,4.10
2012,04,03,09,12,4.10
2012,04,03,09,13,4.10
2012,04,03,09,14,4.10
2012,04,03,09,15,4.10
2012,04,03,09,16,4.00
2012,04,03,09,17,4.10
2012,04,03,09,18,4.10
2012,04,03,09,19,4.00
2012,04,03,09,20,4.00
2012,04,03,09,21,4.10
2012,04,03,09,22,4.10
2012,04,03,09,23,4.10
2012,04,03,09,24,4.10
2012,04,03,09,25,4.10
2012,04,03,09,26,4.10
2012,04,03,09,27,4.10
2012,04,03,09,28,4.10
2012,04,03,09,29,4.10
2012,04,03,09,30,4.10
2012,04,03,09,31,4.10
2012,04,03,09,32,4.10
2012,04,03,09,33,4.10
2012,04,03,09,34,4.10
2012,04,03,09,35,4.10
2012,04,03,09,36,4.00
2012,04,03,09,37,4.00
2012,04,03,09,38,4.00
2012,04,03,09,39,4.00
2012,04,03,09,40,3.90
2012,04,03,09,41,3.90
2012,04,03,09,42,3.90
2012,04,03,09,43,3.90
2012,04,03,09,44,3.90
2012,04,03,09,45,3.90
2012,04,03,09,46,3.90
2012,04,03,09,47,3.80
2012,04,03,09,48,3.80
2012,04,03,09,49,3.80
2012,04,03,09,50,3.80
2012,04,03,09,51,3.80
2012,04,03,09,52,3.80
2012,04,03,09,53,3.80
2012,04,03,09,54,3.80
2012,04,03,09,55,3.80
2012,04,03,09,56,3.80
2012,04,03,09,57,3.80
2012,04,03,09,58,3.80
2012,04,03,09,59,3.80
2012,04,03,10,00,3.80
2012,04,03,10,01,3.80
2012,04,03,10,02,3.80
2012,04,03,10,03,3.80
2012,04,03,10,04,3.80
2012,04,03,10,05,3.80
2012,04,03,10,06,3.80
2012,04,03,10,07,3.80
2012,04,03,10,08,3.80
2012,04,03,10,09,3.80
2012,04,03,10,10,3.80
2012,04,03,10,11,3.80
2012,04,03,10,12,3.80
2012,04,03,10,13,3.80
2012,04,03,10,14,3.80
2012,04,03,10,15,3.80
2012,04,03,10,16,3.90
2012,04,03,10,17,3.80
2012,04,03,10,18,3.80
2012,04,03,10,19,3.90
2012,04,03,10,20,3.90
2012,04,03,10,21,3.90
2012,04,03,10,22,3.90
2012,04,03,10,23,3.90
2012,04,03,10,24,3.90
2012,04,03,10,25,3.90
2012,04,03,10,26,3.90
2012,04,03,10,27,4.00
2012,04,03,10,28,4.00
2012,04,03,10,29,4.00
2012,04,03,10,30,4.00
2012,04,03,10,31,4.00
2012,04,03,10,32,4.00
2012,04,03,10,33,4.00
2012,04,03,10,34,4.00
2012,04,03,10,35,4.10
2012,04,03,10,36,4.00
2012,04,03,10,37,4.10
2012,04,03,10,38,4.10
2012,04,03,10,39,4.10
2012,04,03,10,40,4.10
2012,04,03,10,41,4.10
2012,04,03,10,42,4.10
2012,04,03,10,43,4.10
2012,04,03,10,44,4.10
2012,04,03,10,45,4.10
2012,04,03,10,46,4.10
2012,04,03,10,47,4.10
2012,04,03,10,48,4.10
2012,04,03,10,49,4.10
2012,04,03,10,50,4.10
2012,04,03,10,51,4.10
2012,04,03,10,52,4.10
2012,04,03,10,53,4.10
2012,04,03,10,54,4.10
2012,04,03,10,55,4.10
2012,04,03,10,56,4.10
2012,04,03,10,57,4.10
2012,04,03,10,58,4.20
2012,04,03,10,59,4.20
2012,04,03,11,00,4.20
2012,04,03,11,01,4.20
2012,04,03,11,02,4.20
2012,04,03,11,03,4.20
2012,04,03,11,04,4.20
2012,04,03,11,05,4.20
2012,04,03,11,06,4.30
2012,04,03,11,07,4.30
2012,04,03,11,08,4.30
2012,04,03,11,09,4.30
2012,04,03,11,10,4.30
2012,04,03,11,11,4.40
2012,04,03,11,12,4.40
2012,04,03,11,13,4.40
2012,04,03,11,14,4.40
2012,04,03,11,15,4.40
2012,04,03,11,16,4.40
2012,04,03,11,17,4.40
2012,04,03,11,18,4.40
2012,04,03,11,19,4.40
2012,04,03,11,20,4.40
2012,04,03,11,21,4.40
2012,04,03,11,22,4.50
2012,04,03,11,23,4.50
2012,04,03,11,24,4.60
2012,04,03,11,25,4.60
2012,04,03,11,26,4.60
2012,04,03,11,27,4.70
2012,04,03,11,28,4.70
2012,04,03,11,29,4.70
2012,04,03,11,30,4.70
2012,04,03,11,31,4.70
2012,04,03,11,32,4.70
2012,04,03,11,33,4.70
2012,04,03,11,34,4.70
2012,04,03,11,35,4.70
2012,04,03,11,36,4.70
2012,04,03,11,37,4.70
2012,04,03,11,38,4.70
2012,04,03,11,39,4.60
2012,04,03,11,40,4.60
2012,04,03,11,41,4.60
2012,04,03,11,42,4.60
2012,04,03,11,43,4.60
2012,04,03,11,44,4.70
2012,04,03,11,45,4.70
2012,04,03,11,46,4.70
2012,04,03,11,47,4.70
2012,04,03,11,48,4.70
2012,04,03,11,49,4.70
2012,04,03,11,50,4.70
2012,04,03,11,51,4.70
2012,04,03,11,52,4.70
2012,04,03,11,53,4.70
2012,04,03,11,54,4.80
2012,04,03,11,55,4.80
2012,04,03,11,56,4.80
2012,04,03,11,57,4.80
2012,04,03,11,58,4.80
2012,04,03,11,59,4.80
2012,04,03,12,00,4.80
2012,04,03,12,01,4.80
2012,04,03,12,02,4.80
2012,04,03,12,03,4.80
2012,04,03,12,04,4.80
2012,04,03,12,05,4.90
2012,04,03,12,06,4.90
2012,04,03,12,07,4.90
2012,04,03,12,08,4.80
2012,04,03,12,09,4.90
2012,04,03,12,10,4.90
2012,04,03,12,11,4.90
2012,04,03,12,12,5.00
2012,04,03,12,13,5.00
2012,04,03,12,14,5.00
2012,04,03,12,15,5.10
2012,04,03,12,16,5.10
2012,04,03,12,17,5.20
2012,04,03,12,18,5.20
2012,04,03,12,19,5.20
2012,04,03,12,20,5.30
2012,04,03,12,21,5.30
2012,04,03,12,22,5.30
2012,04,03,12,23,5.30
2012,04,03,12,24,5.30
2012,04,03,12,25,5.20
2012,04,03,12,26,5.20
2012,04,03,12,27,5.20
2012,04,03,12,28,5.20
2012,04,03,12,29,5.20
2012,04,03,12,30,5.20
2012,04,03,12,31,5.20
2012,04,03,12,32,5.20
2012,04,03,12,33,5.20
2012,04,03,12,34,5.20
2012,04,03,12,35,5.20
2012,04,03,12,36,5.20
2012,04,03,12,37,5.30
2012,04,03,12,38,5.30
2012,04,03,12,39,5.30
2012,04,03,12,40,5.30
2012,04,03,12,41,5.40
2012,04,03,12,42,5.40
2012,04,03,12,43,5.40
2012,04,03,12,44,5.40
2012,04,03,12,45,5.40
2012,04,03,12,46,5.50
2012,04,03,12,47,5.50
2012,04,03,12,48,5.50
2012,04,03,12,49,5.50
2012,04,03,12,50,5.50
2012,04,03,12,51,5.60
2012,04,03,12,52,5.60
2012,04,03,12,53,5.60
2012,04,03,12,54,5.60
2012,04,03,12,55,5.70
2012,04,03,12,56,5.70
2012,04,03,12,57,5.80
2012,04,03,12,58,5.80
2012,04,03,12,59,5.80
2012,04,03,13,00,5.80
2012,04,03,13,01,5.80
2012,04,03,13,02,5.90
2012,04,03,13,03,5.90
2012,04,03,13,04,5.90
2012,04,03,13,05,5.90
2012,04,03,13,06,5.90
2012,04,03,13,07,5.90
2012,04,03,13,08,5.90
2012,04,03,13,09,6.00
2012,04,03,13,10,6.10
2012,04,03,13,11,6.10
2012,04,03,13,12,6.10
2012,04,03,13,13,6.20
2012,04,03,13,14,6.30
2012,04,03,13,15,6.30
2012,04,03,13,16,6.30
2012,04,03,13,17,6.30
2012,04,03,13,18,6.30
2012,04,03,13,19,6.30
2012,04,03,13,20,6.30
2012,04,03,13,21,6.40
2012,04,03,13,22,6.40
2012,04,03,13,23,6.40
2012,04,03,13,24,6.40
2012,04,03,13,25,6.40
2012,04,03,13,26,6.40
2012,04,03,13,27,6.40
2012,04,03,13,28,6.40
2012,04,03,13,29,6.40
2012,04,03,13,30,6.30
2012,04,03,13,31,6.30
2012,04,03,13,32,6.40
2012,04,03,13,33,6.40
2012,04,03,13,34,6.50
2012,04,03,13,35,6.60
2012,04,03,13,36,6.60
2012,04,03,13,37,6.60
2012,04,03,13,38,6.70
2012,04,03,13,39,6.70
2012,04,03,13,40,6.70
2012,04,03,13,41,6.80
2012,04,03,13,42,6.90
2012,04,03,13,43,6.90
2012,04,03,13,44,6.90
2012,04,03,13,45,7.00
2012,04,03,13,46,7.10
2012,04,03,13,47,7.10
2012,04,03,13,48,7.20
2012,04,03,13,49,7.20
2012,04,03,13,50,7.20
2012,04,03,13,51,7.20
2012,04,03,13,52,7.10
2012,04,03,13,53,7.10
2012,04,03,13,54,7.20
2012,04,03,13,55,7.20
2012,04,03,13,56,7.30
2012,04,03,13,57,7.30
2012,04,03,13,58,7.20
2012,04,03,13,59,7.20
2012,04,03,14,00,7.20
2012,04,03,14,01,7.20
2012,04,03,14,02,7.20
2012,04,03,14,03,7.20
2012,04,03,14,04,7.20
2012,04,03,14,05,7.20
2012,04,03,14,06,7.20
2012,04,03,14,07,7.20
2012,04,03,14,08,7.10
2012,04,03,14,09,7.10
2012,04,03,14,10,7.10
2012,04,03,14,11,7.10
2012,04,03,14,12,7.20
2012,04,03,14,13,7.20
2012,04,03,14,14,7.20
2012,04,03,14,15,7.20
2012,04,03,14,16,7.20
2012,04,03,14,17,7.30
2012,04,03,14,18,7.30
2012,04,03,14,19,7.30
2012,04,03,14,20,7.20
2012,04,03,14,21,7.20
2012,04,03,14,22,7.20
2012,04,03,14,23,7.10
2012,04,03,14,24,7.10
2012,04,03,14,25,7.20
2012,04,03,14,26,7.20
2012,04,03,14,27,7.20
2012,04,03,14,28,7.20
2012,04,03,14,29,7.20
2012,04,03,14,30,7.20
2012,04,03,14,31,7.30
2012,04,03,14,32,7.30
2012,04,03,14,33,7.40
2012,04,03,14,34,7.40
2012,04,03,14,35,7.40
2012,04,03,14,36,7.40
2012,04,03,14,37,7.40
2012,04,03,14,38,7.40
2012,04,03,14,39,7.50
2012,04,03,14,40,7.50
2012,04,03,14,41,7.50
2012,04,03,14,42,7.50
2012,04,03,14,43,7.50
2012,04,03,14,44,7.40
2012,04,03,14,45,7.40
2012,04,03,14,46,7.50
2012,04,03,14,47,7.50
2012,04,03,14,48,7.60
2012,04,03,14,49,7.70
2012,04,03,14,50,7.80
2012,04,03,14,51,7.80
2012,04,03,14,52,7.70
2012,04,03,14,53,7.80
2012,04,03,14,54,7.70
2012,04,03,14,55,7.60
2012,04,03,14,56,7.60
2012,04,03,14,57,7.50
2012,04,03,14,58,7.40
2012,04,03,14,59,7.40
2012,04,03,15,00,7.30
2012,04,03,15,01,7.30
2012,04,03,15,02,7.30
2012,04,03,15,03,7.30
2012,04,03,15,04,7.30
2012,04,03,15,05,7.30
2012,04,03,15,06,7.30
2012,04,03,15,07,7.30
2012,04,03,15,08,7.30
2012,04,03,15,09,7.30
2012,04,03,15,10,7.30
2012,04,03,15,11,7.30
2012,04,03,15,12,7.30
2012,04,03,15,13,7.30
2012,04,03,15,14,7.30
2012,04,03,15,15,7.30
2012,04,03,15,16,7.30
2012,04,03,15,17,7.30
2012,04,03,15,18,7.30
2012,04,03,15,19,7.30
2012,04,03,15,20,7.30
2012,04,03,15,21,7.40
2012,04,03,15,22,7.40
2012,04,03,15,23,7.50
2012,04,03,15,24,7.60
2012,04,03,15,25,7.60
2012,04,03,15,26,7.70
2012,04,03,15,27,7.70
2012,04,03,15,28,7.70
2012,04,03,15,29,7.80
2012,04,03,15,30,7.80
2012,04,03,15,31,7.90
2012,04,03,15,32,8.00
2012,04,03,15,33,8.00
2012,04,03,15,34,8.00
2012,04,03,15,35,8.00
2012,04,03,15,36,7.90
2012,04,03,15,37,7.70
2012,04,03,15,38,7.40
2012,04,03,15,39,7.20
2012,04,03,15,40,7.00
2012,04,03,15,41,6.80
2012,04,03,15,42,6.70
2012,04,03,15,43,6.60
2012,04,03,15,44,6.50
2012,04,03,15,45,6.50
2012,04,03,15,46,6.40
2012,04,03,15,47,6.40
2012,04,03,15,48,6.30
2012,04,03,15,49,6.30
2012,04,03,15,50,6.30
2012,04,03,15,51,6.30
2012,04,03,15,52,6.40
2012,04,03,15,53,6.40
2012,04,03,15,54,6.40
2012,04,03,15,55,6.40
2012,04,03,15,56,6.40
2012,04,03,15,57,6.30
2012,04,03,15,58,6.30
2012,04,03,15,59,6.30
2012,04,03,16,00,6.30
2012,04,03,16,01,6.30
2012,04,03,16,02,6.30
2012,04,03,16,03,6.30
2012,04,03,16,04,6.20
2012,04,03,16,05,6.20
2012,04,03,16,06,6.20
2012,04,03,16,07,6.20
2012,04,03,16,08,6.30
2012,04,03,16,09,6.30
2012,04,03,16,10,6.30
2012,04,03,16,11,6.40
2012,04,03,16,12,6.40
2012,04,03,16,13,6.40
2012,04,03,16,14,6.40
2012,04,03,16,15,6.40
2012,04,03,16,16,6.40
2012,04,03,16,17,6.40
2012,04,03,16,18,6.40
2012,04,03,16,19,6.40
2012,04,03,16,20,6.30
2012,04,03,16,21,6.40
2012,04,03,16,22,6.40
2012,04,03,16,23,6.40
2012,04,03,16,24,6.40
2012,04,03,16,25,6.40
2012,04,03,16,26,6.40
2012,04,03,16,27,6.40
2012,04,03,16,28,6.40
2012,04,03,16,29,6.40
2012,04,03,16,30,6.40
2012,04,03,16,31,6.40
2012,04,03,16,32,6.40
2012,04,03,16,33,6.50
2012,04,03,16,34,6.50
2012,04,03,16,35,6.50
2012,04,03,16,36,6.50
2012,04,03,16,37,6.50
2012,04,03,16,38,6.50
2012,04,03,16,39,6.50
2012,04,03,16,40,6.60
2012,04,03,16,41,6.60
2012,04,03,16,42,6.60
2012,04,03,16,43,6.60
2012,04,03,16,44,6.60
2012,04,03,16,45,6.60
2012,04,03,16,46,6.60
2012,04,03,16,47,6.60
2012,04,03,16,48,6.60
2012,04,03,16,49,6.60
2012,04,03,16,50,6.60
2012,04,03,16,51,6.60
2012,04,03,16,52,6.70
2012,04,03,16,53,6.70
2012,04,03,16,54,6.60
2012,04,03,16,55,6.60
2012,04,03,16,56,6.50
2012,04,03,16,57,6.40
2012,04,03,16,58,6.30
2012,04,03,16,59,6.30
2012,04,03,17,00,6.20
2012,04,03,17,01,6.10
2012,04,03,17,02,6.00
2012,04,03,17,03,5.90
2012,04,03,17,04,5.80
2012,04,03,17,05,5.80
2012,04,03,17,06,5.70
2012,04,03,17,07,5.70
2012,04,03,17,08,5.60
2012,04,03,17,09,5.50
2012,04,03,17,10,5.50
2012,04,03,17,11,5.40
2012,04,03,17,12,5.30
2012,04,03,17,13,5.30
2012,04,03,17,14,5.20
2012,04,03,17,15,5.20
2012,04,03,17,16,5.20
2012,04,03,17,17,5.10
2012,04,03,17,18,5.10
2012,04,03,17,19,5.10
2012,04,03,17,20,5.10
2012,04,03,17,21,5.10
2012,04,03,17,22,5.10
2012,04,03,17,23,5.10
2012,04,03,17,24,5.10
2012,04,03,17,25,5.10
2012,04,03,17,26,5.10
2012,04,03,17,27,5.10
2012,04,03,17,28,5.20
2012,04,03,17,29,5.20
2012,04,03,17,30,5.20
2012,04,03,17,31,5.20
2012,04,03,17,32,5.20
2012,04,03,17,33,5.20
2012,04,03,17,34,5.20
2012,04,03,17,35,5.20
2012,04,03,17,36,5.20
2012,04,03,17,37,5.30
2012,04,03,17,38,5.30
2012,04,03,17,39,5.30
2012,04,03,17,40,5.30
2012,04,03,17,41,5.40
2012,04,03,17,42,5.40
2012,04,03,17,43,5.40
2012,04,03,17,44,5.40
2012,04,03,17,45,5.40
2012,04,03,17,46,5.50
2012,04,03,17,47,5.50
2012,04,03,17,48,5.50
2012,04,03,17,49,5.60
2012,04,03,17,50,5.60
2012,04,03,17,51,5.60
2012,04,03,17,52,5.60
2012,04,03,17,53,5.70
2012,04,03,17,54,5.70
2012,04,03,17,55,5.80
2012,04,03,17,56,5.80
2012,04,03,17,57,5.90
2012,04,03,17,58,5.90
2012,04,03,17,59,5.90
2012,04,03,18,00,6.00
2012,04,03,18,01,6.00
2012,04,03,18,02,6.00
2012,04,03,18,03,6.00
2012,04,03,18,04,6.00
2012,04,03,18,05,6.00
2012,04,03,18,06,6.00